owner,sensor,date,latitude,longitude,sea_surface_height_above_sea_level,qcFlag 
WAVCIS,ioos:station:WAVCIS:CSI16:1,2011-03-01T00:00:00Z,29.4012,-89.0355,8.895,11111222 
WAVCIS,ioos:station:WAVCIS:CSI16:1,2011-03-01T01:00:00Z,29.4012,-89.0355,8.867,11111222 
WAVCIS,ioos:station:WAVCIS:CSI16:1,2011-03-01T02:00:00Z,29.4012,-89.0355,8.819,11111222 
WAVCIS,ioos:station:WAVCIS:CSI16:1,2011-03-01T03:00:00Z,29.4012,-89.0355,8.768,11111222 
WAVCIS,ioos:station:WAVCIS:CSI16:1,2011-03-01T04:00:00Z,29.4012,-89.0355,8.71,11111222 
WAVCIS,ioos:station:WAVCIS:CSI16:1,2011-03-01T05:00:00Z,29.4012,-89.0355,8.657,11111222 
WAVCIS,ioos:station:WAVCIS:CSI16:1,2011-03-01T06:00:00Z,29.4012,-89.0355,8.545,11111222 
WAVCIS,ioos:station:WAVCIS:CSI16:1,2011-03-01T07:00:00Z,29.4012,-89.0355,8.499,11111222 
WAVCIS,ioos:station:WAVCIS:CSI16:1,2011-03-01T08:00:00Z,29.4012,-89.0355,8.442,11111222 
WAVCIS,ioos:station:WAVCIS:CSI16:1,2011-03-01T09:00:00Z,29.4012,-89.0355,8.429,11111222 
WAVCIS,ioos:station:WAVCIS:CSI16:1,2011-03-01T10:00:00Z,29.4012,-89.0355,8.407,11111222 
WAVCIS,ioos:station:WAVCIS:CSI16:1,2011-03-01T11:00:00Z,29.4012,-89.0355,8.389,11111222 
WAVCIS,ioos:station:WAVCIS:CSI16:1,2011-03-01T12:00:00Z,29.4012,-89.0355,8.425,11111222 
WAVCIS,ioos:station:WAVCIS:CSI16:1,2011-03-01T13:00:00Z,29.4012,-89.0355,8.504,11111222 
WAVCIS,ioos:station:WAVCIS:CSI16:1,2011-03-01T14:00:00Z,29.4012,-89.0355,8.572,11111222 
WAVCIS,ioos:station:WAVCIS:CSI16:1,2011-03-01T15:00:00Z,29.4012,-89.0355,8.634,11111222 
WAVCIS,ioos:station:WAVCIS:CSI16:1,2011-03-01T16:00:00Z,29.4012,-89.0355,8.663,11111222 
WAVCIS,ioos:station:WAVCIS:CSI16:1,2011-03-01T17:00:00Z,29.4012,-89.0355,8.707,11111222 
WAVCIS,ioos:station:WAVCIS:CSI16:1,2011-03-01T18:00:00Z,29.4012,-89.0355,8.738,11111222 
WAVCIS,ioos:station:WAVCIS:CSI16:1,2011-03-01T19:00:00Z,29.4012,-89.0355,8.767,11111222 
WAVCIS,ioos:station:WAVCIS:CSI16:1,2011-03-01T20:00:00Z,29.4012,-89.0355,8.806,11111222 
WAVCIS,ioos:station:WAVCIS:CSI16:1,2011-03-01T21:00:00Z,29.4012,-89.0355,8.857,11111222 
WAVCIS,ioos:station:WAVCIS:CSI16:1,2011-03-01T22:00:00Z,29.4012,-89.0355,8.913,11111222 
WAVCIS,ioos:station:WAVCIS:CSI16:1,2011-03-01T23:00:00Z,29.4012,-89.0355,8.958,11111222 
WAVCIS,ioos:station:WAVCIS:CSI16:1,2011-03-02T00:00:00Z,29.4012,-89.0355,8.983,11111222 
WAVCIS,ioos:station:WAVCIS:CSI16:1,2011-03-02T01:00:00Z,29.4012,-89.0355,9.005,11111222 
WAVCIS,ioos:station:WAVCIS:CSI16:1,2011-03-02T02:00:00Z,29.4012,-89.0355,9.0,11111222 
WAVCIS,ioos:station:WAVCIS:CSI16:1,2011-03-02T03:00:00Z,29.4012,-89.0355,8.978,11111222 
WAVCIS,ioos:station:WAVCIS:CSI16:1,2011-03-02T04:00:00Z,29.4012,-89.0355,8.95,11111222 
WAVCIS,ioos:station:WAVCIS:CSI16:1,2011-03-02T05:00:00Z,29.4012,-89.0355,8.904,11111222 
WAVCIS,ioos:station:WAVCIS:CSI16:1,2011-03-02T06:00:00Z,29.4012,-89.0355,8.825,11111222 
WAVCIS,ioos:station:WAVCIS:CSI16:1,2011-03-02T07:00:00Z,29.4012,-89.0355,8.748,11111222 
WAVCIS,ioos:station:WAVCIS:CSI16:1,2011-03-02T08:00:00Z,29.4012,-89.0355,8.691,11111222 
WAVCIS,ioos:station:WAVCIS:CSI16:1,2011-03-02T09:00:00Z,29.4012,-89.0355,8.639,11111222 
WAVCIS,ioos:station:WAVCIS:CSI16:1,2011-03-02T10:00:00Z,29.4012,-89.0355,8.613,11111222 
WAVCIS,ioos:station:WAVCIS:CSI16:1,2011-03-02T11:00:00Z,29.4012,-89.0355,8.603,11111222 
WAVCIS,ioos:station:WAVCIS:CSI16:1,2011-03-02T12:00:00Z,29.4012,-89.0355,8.603,11111222 
WAVCIS,ioos:station:WAVCIS:CSI16:1,2011-03-02T13:00:00Z,29.4012,-89.0355,8.608,11111222 
WAVCIS,ioos:station:WAVCIS:CSI16:1,2011-03-02T14:00:00Z,29.4012,-89.0355,8.616,11111222 
WAVCIS,ioos:station:WAVCIS:CSI16:1,2011-03-02T15:00:00Z,29.4012,-89.0355,8.631,11111222 
WAVCIS,ioos:station:WAVCIS:CSI16:1,2011-03-02T16:00:00Z,29.4012,-89.0355,8.657,11111222 
WAVCIS,ioos:station:WAVCIS:CSI16:1,2011-03-02T17:00:00Z,29.4012,-89.0355,8.671,11111222 
WAVCIS,ioos:station:WAVCIS:CSI16:1,2011-03-02T18:00:00Z,29.4012,-89.0355,8.673,11111222 
WAVCIS,ioos:station:WAVCIS:CSI16:1,2011-03-02T19:00:00Z,29.4012,-89.0355,8.652,11111222 
WAVCIS,ioos:station:WAVCIS:CSI16:1,2011-03-02T20:00:00Z,29.4012,-89.0355,8.667,11111222 
WAVCIS,ioos:station:WAVCIS:CSI16:1,2011-03-02T21:00:00Z,29.4012,-89.0355,8.686,11111222 
WAVCIS,ioos:station:WAVCIS:CSI16:1,2011-03-02T22:00:00Z,29.4012,-89.0355,8.715,11111222 
WAVCIS,ioos:station:WAVCIS:CSI16:1,2011-03-02T23:00:00Z,29.4012,-89.0355,8.747,11111222 
WAVCIS,ioos:station:WAVCIS:CSI16:1,2011-03-03T00:00:00Z,29.4012,-89.0355,8.775,11111222 
WAVCIS,ioos:station:WAVCIS:CSI16:1,2011-03-03T01:00:00Z,29.4012,-89.0355,8.796,11111222 
WAVCIS,ioos:station:WAVCIS:CSI16:1,2011-03-03T02:00:00Z,29.4012,-89.0355,8.825,11111222 
WAVCIS,ioos:station:WAVCIS:CSI16:1,2011-03-03T03:00:00Z,29.4012,-89.0355,8.84,11111222 
WAVCIS,ioos:station:WAVCIS:CSI16:1,2011-03-03T04:00:00Z,29.4012,-89.0355,8.846,11111222 
WAVCIS,ioos:station:WAVCIS:CSI16:1,2011-03-03T05:00:00Z,29.4012,-89.0355,8.822,11111222 
WAVCIS,ioos:station:WAVCIS:CSI16:1,2011-03-03T06:00:00Z,29.4012,-89.0355,8.81,11111222 
WAVCIS,ioos:station:WAVCIS:CSI16:1,2011-03-03T07:00:00Z,29.4012,-89.0355,8.761,11111222 
WAVCIS,ioos:station:WAVCIS:CSI16:1,2011-03-03T08:00:00Z,29.4012,-89.0355,8.723,11111222 
WAVCIS,ioos:station:WAVCIS:CSI16:1,2011-03-03T09:00:00Z,29.4012,-89.0355,8.698,11111222 
WAVCIS,ioos:station:WAVCIS:CSI16:1,2011-03-03T10:00:00Z,29.4012,-89.0355,8.708,11111222 
WAVCIS,ioos:station:WAVCIS:CSI16:1,2011-03-03T11:00:00Z,29.4012,-89.0355,8.714,11111222 
WAVCIS,ioos:station:WAVCIS:CSI16:1,2011-03-03T12:00:00Z,29.4012,-89.0355,8.724,11111222 
WAVCIS,ioos:station:WAVCIS:CSI16:1,2011-03-03T13:00:00Z,29.4012,-89.0355,8.739,11111222 
WAVCIS,ioos:station:WAVCIS:CSI16:1,2011-03-03T14:00:00Z,29.4012,-89.0355,8.761,11111222 
WAVCIS,ioos:station:WAVCIS:CSI16:1,2011-03-03T15:00:00Z,29.4012,-89.0355,8.794,11111222 
WAVCIS,ioos:station:WAVCIS:CSI16:1,2011-03-03T16:00:00Z,29.4012,-89.0355,8.833,11111222 
WAVCIS,ioos:station:WAVCIS:CSI16:1,2011-03-03T17:00:00Z,29.4012,-89.0355,8.857,11111222 
WAVCIS,ioos:station:WAVCIS:CSI16:1,2011-03-03T18:00:00Z,29.4012,-89.0355,8.85,11111222 
WAVCIS,ioos:station:WAVCIS:CSI16:1,2011-03-03T19:00:00Z,29.4012,-89.0355,8.833,11111222 
WAVCIS,ioos:station:WAVCIS:CSI16:1,2011-03-03T20:00:00Z,29.4012,-89.0355,8.828,11111222 
WAVCIS,ioos:station:WAVCIS:CSI16:1,2011-03-03T21:00:00Z,29.4012,-89.0355,8.832,11111222 
WAVCIS,ioos:station:WAVCIS:CSI16:1,2011-03-03T22:00:00Z,29.4012,-89.0355,8.858,11111222 
WAVCIS,ioos:station:WAVCIS:CSI16:1,2011-03-03T23:00:00Z,29.4012,-89.0355,8.891,11111222 
WAVCIS,ioos:station:WAVCIS:CSI16:1,2011-03-04T00:00:00Z,29.4012,-89.0355,8.905,11111222 
WAVCIS,ioos:station:WAVCIS:CSI16:1,2011-03-04T01:00:00Z,29.4012,-89.0355,8.896,11111222 
WAVCIS,ioos:station:WAVCIS:CSI16:1,2011-03-04T02:00:00Z,29.4012,-89.0355,8.912,11111222 
WAVCIS,ioos:station:WAVCIS:CSI16:1,2011-03-04T03:00:00Z,29.4012,-89.0355,8.913,11111222 
WAVCIS,ioos:station:WAVCIS:CSI16:1,2011-03-04T04:00:00Z,29.4012,-89.0355,8.902,11111222 
WAVCIS,ioos:station:WAVCIS:CSI16:1,2011-03-04T05:00:00Z,29.4012,-89.0355,8.871,11111222 
WAVCIS,ioos:station:WAVCIS:CSI16:1,2011-03-04T06:00:00Z,29.4012,-89.0355,8.851,11111222 
WAVCIS,ioos:station:WAVCIS:CSI16:1,2011-03-04T07:00:00Z,29.4012,-89.0355,8.792,11111222 
WAVCIS,ioos:station:WAVCIS:CSI16:1,2011-03-04T08:00:00Z,29.4012,-89.0355,8.729,11111222 
WAVCIS,ioos:station:WAVCIS:CSI16:1,2011-03-04T09:00:00Z,29.4012,-89.0355,8.706,11111222 
WAVCIS,ioos:station:WAVCIS:CSI16:1,2011-03-04T10:00:00Z,29.4012,-89.0355,8.677,11111222 
WAVCIS,ioos:station:WAVCIS:CSI16:1,2011-03-04T11:00:00Z,29.4012,-89.0355,8.685,11111222 
WAVCIS,ioos:station:WAVCIS:CSI16:1,2011-03-04T12:00:00Z,29.4012,-89.0355,8.719,11111222 
WAVCIS,ioos:station:WAVCIS:CSI16:1,2011-03-04T13:00:00Z,29.4012,-89.0355,8.732,11111222 
WAVCIS,ioos:station:WAVCIS:CSI16:1,2011-03-04T14:00:00Z,29.4012,-89.0355,8.743,11111222 
WAVCIS,ioos:station:WAVCIS:CSI16:1,2011-03-04T15:00:00Z,29.4012,-89.0355,8.778,11111222 
WAVCIS,ioos:station:WAVCIS:CSI16:1,2011-03-04T16:00:00Z,29.4012,-89.0355,8.812,11111222 
WAVCIS,ioos:station:WAVCIS:CSI16:1,2011-03-04T17:00:00Z,29.4012,-89.0355,8.841,11111222 
WAVCIS,ioos:station:WAVCIS:CSI16:1,2011-03-04T18:00:00Z,29.4012,-89.0355,8.847,11111222 
WAVCIS,ioos:station:WAVCIS:CSI16:1,2011-03-04T19:00:00Z,29.4012,-89.0355,8.855,11111222 
WAVCIS,ioos:station:WAVCIS:CSI16:1,2011-03-04T20:00:00Z,29.4012,-89.0355,8.849,11111222 
WAVCIS,ioos:station:WAVCIS:CSI16:1,2011-03-04T21:00:00Z,29.4012,-89.0355,8.86,11111222 
WAVCIS,ioos:station:WAVCIS:CSI16:1,2011-03-04T22:00:00Z,29.4012,-89.0355,8.877,11111222 
WAVCIS,ioos:station:WAVCIS:CSI16:1,2011-03-04T23:00:00Z,29.4012,-89.0355,8.915,11111222 
WAVCIS,ioos:station:WAVCIS:CSI16:1,2011-03-05T00:00:00Z,29.4012,-89.0355,8.954,11111222 
WAVCIS,ioos:station:WAVCIS:CSI16:1,2011-03-05T01:00:00Z,29.4012,-89.0355,8.991,11111222 
WAVCIS,ioos:station:WAVCIS:CSI16:1,2011-03-05T02:00:00Z,29.4012,-89.0355,9.019,11111222 
WAVCIS,ioos:station:WAVCIS:CSI16:1,2011-03-05T03:00:00Z,29.4012,-89.0355,9.031,11111222 
WAVCIS,ioos:station:WAVCIS:CSI16:1,2011-03-05T04:00:00Z,29.4012,-89.0355,9.041,11111222 
WAVCIS,ioos:station:WAVCIS:CSI16:1,2011-03-05T05:00:00Z,29.4012,-89.0355,9.023,11111222 
WAVCIS,ioos:station:WAVCIS:CSI16:1,2011-03-05T06:00:00Z,29.4012,-89.0355,9.0,11111222 
WAVCIS,ioos:station:WAVCIS:CSI16:1,2011-03-05T07:00:00Z,29.4012,-89.0355,8.985,11111222 
WAVCIS,ioos:station:WAVCIS:CSI16:1,2011-03-05T08:00:00Z,29.4012,-89.0355,8.951,11111222 
WAVCIS,ioos:station:WAVCIS:CSI16:1,2011-03-05T09:00:00Z,29.4012,-89.0355,8.89,11111222 
WAVCIS,ioos:station:WAVCIS:CSI16:1,2011-03-05T10:00:00Z,29.4012,-89.0355,8.865,11111222 
WAVCIS,ioos:station:WAVCIS:CSI16:1,2011-03-05T11:00:00Z,29.4012,-89.0355,8.854,11111222 
WAVCIS,ioos:station:WAVCIS:CSI16:1,2011-03-05T12:00:00Z,29.4012,-89.0355,8.851,11111222 
WAVCIS,ioos:station:WAVCIS:CSI16:1,2011-03-05T13:00:00Z,29.4012,-89.0355,8.842,11111222 
WAVCIS,ioos:station:WAVCIS:CSI16:1,2011-03-05T14:00:00Z,29.4012,-89.0355,8.846,11111222 
WAVCIS,ioos:station:WAVCIS:CSI16:1,2011-03-05T15:00:00Z,29.4012,-89.0355,8.883,11111222 
WAVCIS,ioos:station:WAVCIS:CSI16:1,2011-03-05T16:00:00Z,29.4012,-89.0355,8.871,11111222 
WAVCIS,ioos:station:WAVCIS:CSI16:1,2011-03-05T17:00:00Z,29.4012,-89.0355,8.874,11111222 
WAVCIS,ioos:station:WAVCIS:CSI16:1,2011-03-05T18:00:00Z,29.4012,-89.0355,8.85,11111222 
WAVCIS,ioos:station:WAVCIS:CSI16:1,2011-03-05T19:00:00Z,29.4012,-89.0355,8.821,11111222 
WAVCIS,ioos:station:WAVCIS:CSI16:1,2011-03-05T20:00:00Z,29.4012,-89.0355,8.814,11111222 
WAVCIS,ioos:station:WAVCIS:CSI16:1,2011-03-05T21:00:00Z,29.4012,-89.0355,8.845,11111222 
WAVCIS,ioos:station:WAVCIS:CSI16:1,2011-03-05T22:00:00Z,29.4012,-89.0355,8.753,11111222 
WAVCIS,ioos:station:WAVCIS:CSI16:1,2011-03-05T23:00:00Z,29.4012,-89.0355,8.762,11111222 
WAVCIS,ioos:station:WAVCIS:CSI16:1,2011-03-06T00:00:00Z,29.4012,-89.0355,8.778,11111222 
WAVCIS,ioos:station:WAVCIS:CSI16:1,2011-03-06T01:00:00Z,29.4012,-89.0355,8.814,11111222 
WAVCIS,ioos:station:WAVCIS:CSI16:1,2011-03-06T02:00:00Z,29.4012,-89.0355,8.848,11111222 
WAVCIS,ioos:station:WAVCIS:CSI16:1,2011-03-06T03:00:00Z,29.4012,-89.0355,8.854,11111222 
WAVCIS,ioos:station:WAVCIS:CSI16:1,2011-03-06T04:00:00Z,29.4012,-89.0355,8.935,11111222 
WAVCIS,ioos:station:WAVCIS:CSI16:1,2011-03-06T05:00:00Z,29.4012,-89.0355,8.893,11111222 
WAVCIS,ioos:station:WAVCIS:CSI16:1,2011-03-06T06:00:00Z,29.4012,-89.0355,8.85,11111222 
WAVCIS,ioos:station:WAVCIS:CSI16:1,2011-03-06T07:00:00Z,29.4012,-89.0355,8.835,11111222 
WAVCIS,ioos:station:WAVCIS:CSI16:1,2011-03-06T08:00:00Z,29.4012,-89.0355,8.798,11111222 
WAVCIS,ioos:station:WAVCIS:CSI16:1,2011-03-06T09:00:00Z,29.4012,-89.0355,8.745,11111222 
WAVCIS,ioos:station:WAVCIS:CSI16:1,2011-03-06T10:00:00Z,29.4012,-89.0355,8.738,11111222 
WAVCIS,ioos:station:WAVCIS:CSI16:1,2011-03-06T11:00:00Z,29.4012,-89.0355,8.762,11111222 
WAVCIS,ioos:station:WAVCIS:CSI16:1,2011-03-06T12:00:00Z,29.4012,-89.0355,8.769,11111222 
WAVCIS,ioos:station:WAVCIS:CSI16:1,2011-03-06T13:00:00Z,29.4012,-89.0355,8.769,11111222 
WAVCIS,ioos:station:WAVCIS:CSI16:1,2011-03-06T14:00:00Z,29.4012,-89.0355,8.8,11111222 
WAVCIS,ioos:station:WAVCIS:CSI16:1,2011-03-06T15:00:00Z,29.4012,-89.0355,8.815,11111222 
WAVCIS,ioos:station:WAVCIS:CSI16:1,2011-03-06T16:00:00Z,29.4012,-89.0355,8.789,11111222 
WAVCIS,ioos:station:WAVCIS:CSI16:1,2011-03-06T17:00:00Z,29.4012,-89.0355,8.808,11111222 
WAVCIS,ioos:station:WAVCIS:CSI16:1,2011-03-06T18:00:00Z,29.4012,-89.0355,8.798,11111222 
WAVCIS,ioos:station:WAVCIS:CSI16:1,2011-03-06T19:00:00Z,29.4012,-89.0355,8.753,11111222 
WAVCIS,ioos:station:WAVCIS:CSI16:1,2011-03-06T20:00:00Z,29.4012,-89.0355,8.708,11111222 
WAVCIS,ioos:station:WAVCIS:CSI16:1,2011-03-06T21:00:00Z,29.4012,-89.0355,8.668,11111222 
WAVCIS,ioos:station:WAVCIS:CSI16:1,2011-03-06T22:00:00Z,29.4012,-89.0355,8.647,11111222 
WAVCIS,ioos:station:WAVCIS:CSI16:1,2011-03-06T23:00:00Z,29.4012,-89.0355,8.646,11111222 
WAVCIS,ioos:station:WAVCIS:CSI16:1,2011-03-07T00:00:00Z,29.4012,-89.0355,8.636,11111222 
WAVCIS,ioos:station:WAVCIS:CSI16:1,2011-03-07T01:00:00Z,29.4012,-89.0355,8.655,11111222 
WAVCIS,ioos:station:WAVCIS:CSI16:1,2011-03-07T02:00:00Z,29.4012,-89.0355,8.665,11111222 
WAVCIS,ioos:station:WAVCIS:CSI16:1,2011-03-07T03:00:00Z,29.4012,-89.0355,8.676,11111222 
WAVCIS,ioos:station:WAVCIS:CSI16:1,2011-03-07T04:00:00Z,29.4012,-89.0355,8.697,11111222 
WAVCIS,ioos:station:WAVCIS:CSI16:1,2011-03-07T05:00:00Z,29.4012,-89.0355,8.706,11111222 
WAVCIS,ioos:station:WAVCIS:CSI16:1,2011-03-07T06:00:00Z,29.4012,-89.0355,8.714,11111222 
WAVCIS,ioos:station:WAVCIS:CSI16:1,2011-03-07T07:00:00Z,29.4012,-89.0355,8.716,11111222 
WAVCIS,ioos:station:WAVCIS:CSI16:1,2011-03-07T08:00:00Z,29.4012,-89.0355,8.71,11111222 
WAVCIS,ioos:station:WAVCIS:CSI16:1,2011-03-07T09:00:00Z,29.4012,-89.0355,8.698,11111222 
WAVCIS,ioos:station:WAVCIS:CSI16:1,2011-03-07T10:00:00Z,29.4012,-89.0355,8.717,11111222 
WAVCIS,ioos:station:WAVCIS:CSI16:1,2011-03-07T11:00:00Z,29.4012,-89.0355,8.726,11111222 
WAVCIS,ioos:station:WAVCIS:CSI16:1,2011-03-07T12:00:00Z,29.4012,-89.0355,8.744,11111222 
WAVCIS,ioos:station:WAVCIS:CSI16:1,2011-03-07T13:00:00Z,29.4012,-89.0355,8.774,11111222 
WAVCIS,ioos:station:WAVCIS:CSI16:1,2011-03-07T14:00:00Z,29.4012,-89.0355,8.797,11111222 
WAVCIS,ioos:station:WAVCIS:CSI16:1,2011-03-07T15:00:00Z,29.4012,-89.0355,8.817,11111222 
WAVCIS,ioos:station:WAVCIS:CSI16:1,2011-03-07T16:00:00Z,29.4012,-89.0355,8.826,11111222 
WAVCIS,ioos:station:WAVCIS:CSI16:1,2011-03-07T17:00:00Z,29.4012,-89.0355,8.824,11111222 
WAVCIS,ioos:station:WAVCIS:CSI16:1,2011-03-07T18:00:00Z,29.4012,-89.0355,8.817,11111222 
WAVCIS,ioos:station:WAVCIS:CSI16:1,2011-03-07T19:00:00Z,29.4012,-89.0355,8.773,11111222 
WAVCIS,ioos:station:WAVCIS:CSI16:1,2011-03-07T20:00:00Z,29.4012,-89.0355,8.743,11111222 
WAVCIS,ioos:station:WAVCIS:CSI16:1,2011-03-07T21:00:00Z,29.4012,-89.0355,8.716,11111222 
WAVCIS,ioos:station:WAVCIS:CSI16:1,2011-03-07T22:00:00Z,29.4012,-89.0355,8.687,11111222 
WAVCIS,ioos:station:WAVCIS:CSI16:1,2011-03-07T23:00:00Z,29.4012,-89.0355,8.667,11111222 
WAVCIS,ioos:station:WAVCIS:CSI16:1,2011-03-08T00:00:00Z,29.4012,-89.0355,8.671,11111222 
WAVCIS,ioos:station:WAVCIS:CSI16:1,2011-03-08T01:00:00Z,29.4012,-89.0355,8.667,11111222 
WAVCIS,ioos:station:WAVCIS:CSI16:1,2011-03-08T02:00:00Z,29.4012,-89.0355,8.667,11111222 
WAVCIS,ioos:station:WAVCIS:CSI16:1,2011-03-08T03:00:00Z,29.4012,-89.0355,8.682,11111222 
WAVCIS,ioos:station:WAVCIS:CSI16:1,2011-03-08T04:00:00Z,29.4012,-89.0355,8.709,11111222 
WAVCIS,ioos:station:WAVCIS:CSI16:1,2011-03-08T05:00:00Z,29.4012,-89.0355,8.723,11111222 
WAVCIS,ioos:station:WAVCIS:CSI16:1,2011-03-08T06:00:00Z,29.4012,-89.0355,8.748,11111222 
WAVCIS,ioos:station:WAVCIS:CSI16:1,2011-03-08T07:00:00Z,29.4012,-89.0355,8.769,11111222 
WAVCIS,ioos:station:WAVCIS:CSI16:1,2011-03-08T08:00:00Z,29.4012,-89.0355,8.755,11111222 
WAVCIS,ioos:station:WAVCIS:CSI16:1,2011-03-08T09:00:00Z,29.4012,-89.0355,8.762,11111222 
WAVCIS,ioos:station:WAVCIS:CSI16:1,2011-03-08T10:00:00Z,29.4012,-89.0355,8.772,11111222 
WAVCIS,ioos:station:WAVCIS:CSI16:1,2011-03-08T11:00:00Z,29.4012,-89.0355,8.785,11111222 
WAVCIS,ioos:station:WAVCIS:CSI16:1,2011-03-08T12:00:00Z,29.4012,-89.0355,8.812,11111222 
WAVCIS,ioos:station:WAVCIS:CSI16:1,2011-03-08T13:00:00Z,29.4012,-89.0355,8.863,11111222 
WAVCIS,ioos:station:WAVCIS:CSI16:1,2011-03-08T14:00:00Z,29.4012,-89.0355,8.903,11111222 
WAVCIS,ioos:station:WAVCIS:CSI16:1,2011-03-08T15:00:00Z,29.4012,-89.0355,8.904,11111222 
WAVCIS,ioos:station:WAVCIS:CSI16:1,2011-03-08T16:00:00Z,29.4012,-89.0355,8.909,11111222 
WAVCIS,ioos:station:WAVCIS:CSI16:1,2011-03-08T17:00:00Z,29.4012,-89.0355,8.893,11111222 
WAVCIS,ioos:station:WAVCIS:CSI16:1,2011-03-08T18:00:00Z,29.4012,-89.0355,8.86,11111222 
WAVCIS,ioos:station:WAVCIS:CSI16:1,2011-03-08T19:00:00Z,29.4012,-89.0355,8.836,11111222 
WAVCIS,ioos:station:WAVCIS:CSI16:1,2011-03-08T20:00:00Z,29.4012,-89.0355,8.812,11111222 
WAVCIS,ioos:station:WAVCIS:CSI16:1,2011-03-08T21:00:00Z,29.4012,-89.0355,8.749,11111222 
WAVCIS,ioos:station:WAVCIS:CSI16:1,2011-03-08T22:00:00Z,29.4012,-89.0355,8.708,11111222 
WAVCIS,ioos:station:WAVCIS:CSI16:1,2011-03-08T23:00:00Z,29.4012,-89.0355,8.685,11111222 
WAVCIS,ioos:station:WAVCIS:CSI16:1,2011-03-09T00:00:00Z,29.4012,-89.0355,8.664,11111222 
WAVCIS,ioos:station:WAVCIS:CSI16:1,2011-03-09T01:00:00Z,29.4012,-89.0355,8.645,11111222 
WAVCIS,ioos:station:WAVCIS:CSI16:1,2011-03-09T02:00:00Z,29.4012,-89.0355,8.638,11111222 
WAVCIS,ioos:station:WAVCIS:CSI16:1,2011-03-09T03:00:00Z,29.4012,-89.0355,8.647,11111222 
WAVCIS,ioos:station:WAVCIS:CSI16:1,2011-03-09T04:00:00Z,29.4012,-89.0355,8.659,11111222 
WAVCIS,ioos:station:WAVCIS:CSI16:1,2011-03-09T05:00:00Z,29.4012,-89.0355,8.67,11111222 
WAVCIS,ioos:station:WAVCIS:CSI16:1,2011-03-09T06:00:00Z,29.4012,-89.0355,8.684,11111222 
WAVCIS,ioos:station:WAVCIS:CSI16:1,2011-03-09T07:00:00Z,29.4012,-89.0355,8.735,11111222 
WAVCIS,ioos:station:WAVCIS:CSI16:1,2011-03-09T08:00:00Z,29.4012,-89.0355,8.728,11111222 
WAVCIS,ioos:station:WAVCIS:CSI16:1,2011-03-09T09:00:00Z,29.4012,-89.0355,8.764,11111222 
WAVCIS,ioos:station:WAVCIS:CSI16:1,2011-03-09T10:00:00Z,29.4012,-89.0355,8.787,11111222 
WAVCIS,ioos:station:WAVCIS:CSI16:1,2011-03-09T11:00:00Z,29.4012,-89.0355,8.8,11111222 
WAVCIS,ioos:station:WAVCIS:CSI16:1,2011-03-09T12:00:00Z,29.4012,-89.0355,8.831,11111222 
WAVCIS,ioos:station:WAVCIS:CSI16:1,2011-03-09T13:00:00Z,29.4012,-89.0355,8.886,11111222 
WAVCIS,ioos:station:WAVCIS:CSI16:1,2011-03-09T14:00:00Z,29.4012,-89.0355,8.912,11111222 
WAVCIS,ioos:station:WAVCIS:CSI16:1,2011-03-09T15:00:00Z,29.4012,-89.0355,8.939,11111222 
WAVCIS,ioos:station:WAVCIS:CSI16:1,2011-03-09T16:00:00Z,29.4012,-89.0355,9.008,11111222 
WAVCIS,ioos:station:WAVCIS:CSI16:1,2011-03-09T17:00:00Z,29.4012,-89.0355,9.045,11111222 
WAVCIS,ioos:station:WAVCIS:CSI16:1,2011-03-09T18:00:00Z,29.4012,-89.0355,9.016,11111222 
WAVCIS,ioos:station:WAVCIS:CSI16:1,2011-03-09T19:00:00Z,29.4012,-89.0355,8.839,11111222 
WAVCIS,ioos:station:WAVCIS:CSI16:1,2011-03-09T20:00:00Z,29.4012,-89.0355,8.87,11111222 
WAVCIS,ioos:station:WAVCIS:CSI16:1,2011-03-09T21:00:00Z,29.4012,-89.0355,8.784,11111222 
WAVCIS,ioos:station:WAVCIS:CSI16:1,2011-03-09T22:00:00Z,29.4012,-89.0355,8.741,11111222 
WAVCIS,ioos:station:WAVCIS:CSI16:1,2011-03-09T23:00:00Z,29.4012,-89.0355,8.739,11111222 
WAVCIS,ioos:station:WAVCIS:CSI16:1,2011-03-10T00:00:00Z,29.4012,-89.0355,8.688,11111222 
WAVCIS,ioos:station:WAVCIS:CSI16:1,2011-03-10T01:00:00Z,29.4012,-89.0355,8.632,11111222 
WAVCIS,ioos:station:WAVCIS:CSI16:1,2011-03-10T02:00:00Z,29.4012,-89.0355,8.626,11111222 
WAVCIS,ioos:station:WAVCIS:CSI16:1,2011-03-10T03:00:00Z,29.4012,-89.0355,8.626,11111222 
WAVCIS,ioos:station:WAVCIS:CSI16:1,2011-03-10T04:00:00Z,29.4012,-89.0355,8.619,11111222 
WAVCIS,ioos:station:WAVCIS:CSI16:1,2011-03-10T05:00:00Z,29.4012,-89.0355,8.622,11111222 
WAVCIS,ioos:station:WAVCIS:CSI16:1,2011-03-10T06:00:00Z,29.4012,-89.0355,8.609,11111222 
WAVCIS,ioos:station:WAVCIS:CSI16:1,2011-03-10T07:00:00Z,29.4012,-89.0355,8.572,11111222 
WAVCIS,ioos:station:WAVCIS:CSI16:1,2011-03-10T08:00:00Z,29.4012,-89.0355,8.536,11111222 
WAVCIS,ioos:station:WAVCIS:CSI16:1,2011-03-10T09:00:00Z,29.4012,-89.0355,8.569,11111222 
WAVCIS,ioos:station:WAVCIS:CSI16:1,2011-03-10T10:00:00Z,29.4012,-89.0355,8.619,11111222 
WAVCIS,ioos:station:WAVCIS:CSI16:1,2011-03-10T11:00:00Z,29.4012,-89.0355,8.695,11111222 
WAVCIS,ioos:station:WAVCIS:CSI16:1,2011-03-10T12:00:00Z,29.4012,-89.0355,8.677,11111222 
WAVCIS,ioos:station:WAVCIS:CSI16:1,2011-03-10T13:00:00Z,29.4012,-89.0355,8.754,11111222 
WAVCIS,ioos:station:WAVCIS:CSI16:1,2011-03-10T14:00:00Z,29.4012,-89.0355,8.858,11111222 
WAVCIS,ioos:station:WAVCIS:CSI16:1,2011-03-10T15:00:00Z,29.4012,-89.0355,8.886,11111222 
WAVCIS,ioos:station:WAVCIS:CSI16:1,2011-03-10T16:00:00Z,29.4012,-89.0355,8.924,11111222 
WAVCIS,ioos:station:WAVCIS:CSI16:1,2011-03-10T17:00:00Z,29.4012,-89.0355,8.956,11111222 
WAVCIS,ioos:station:WAVCIS:CSI16:1,2011-03-10T18:00:00Z,29.4012,-89.0355,8.963,11111222 
WAVCIS,ioos:station:WAVCIS:CSI16:1,2011-03-10T19:00:00Z,29.4012,-89.0355,8.929,11111222 
WAVCIS,ioos:station:WAVCIS:CSI16:1,2011-03-10T20:00:00Z,29.4012,-89.0355,8.883,11111222 
WAVCIS,ioos:station:WAVCIS:CSI16:1,2011-03-10T21:00:00Z,29.4012,-89.0355,8.822,11111222 
WAVCIS,ioos:station:WAVCIS:CSI16:1,2011-03-10T22:00:00Z,29.4012,-89.0355,8.734,11111222 
WAVCIS,ioos:station:WAVCIS:CSI16:1,2011-03-10T23:00:00Z,29.4012,-89.0355,8.676,11111222 
WAVCIS,ioos:station:WAVCIS:CSI16:1,2011-03-11T00:00:00Z,29.4012,-89.0355,8.642,11111222 
WAVCIS,ioos:station:WAVCIS:CSI16:1,2011-03-11T01:00:00Z,29.4012,-89.0355,8.599,11111222 
WAVCIS,ioos:station:WAVCIS:CSI16:1,2011-03-11T02:00:00Z,29.4012,-89.0355,8.587,11111222 
WAVCIS,ioos:station:WAVCIS:CSI16:1,2011-03-11T03:00:00Z,29.4012,-89.0355,8.575,11111222 
WAVCIS,ioos:station:WAVCIS:CSI16:1,2011-03-11T04:00:00Z,29.4012,-89.0355,8.555,11111222 
WAVCIS,ioos:station:WAVCIS:CSI16:1,2011-03-11T05:00:00Z,29.4012,-89.0355,8.522,11111222 
WAVCIS,ioos:station:WAVCIS:CSI16:1,2011-03-11T06:00:00Z,29.4012,-89.0355,8.524,11111222 
WAVCIS,ioos:station:WAVCIS:CSI16:1,2011-03-11T07:00:00Z,29.4012,-89.0355,8.535,11111222 
WAVCIS,ioos:station:WAVCIS:CSI16:1,2011-03-11T08:00:00Z,29.4012,-89.0355,8.554,11111222 
WAVCIS,ioos:station:WAVCIS:CSI16:1,2011-03-11T09:00:00Z,29.4012,-89.0355,8.578,11111222 
WAVCIS,ioos:station:WAVCIS:CSI16:1,2011-03-11T10:00:00Z,29.4012,-89.0355,8.61,11111222 
WAVCIS,ioos:station:WAVCIS:CSI16:1,2011-03-11T11:00:00Z,29.4012,-89.0355,8.635,11111222 
WAVCIS,ioos:station:WAVCIS:CSI16:1,2011-03-11T12:00:00Z,29.4012,-89.0355,8.681,11111222 
WAVCIS,ioos:station:WAVCIS:CSI16:1,2011-03-11T13:00:00Z,29.4012,-89.0355,8.747,11111222 
WAVCIS,ioos:station:WAVCIS:CSI16:1,2011-03-11T14:00:00Z,29.4012,-89.0355,8.785,11111222 
WAVCIS,ioos:station:WAVCIS:CSI16:1,2011-03-11T15:00:00Z,29.4012,-89.0355,8.833,11111222 
WAVCIS,ioos:station:WAVCIS:CSI16:1,2011-03-11T16:00:00Z,29.4012,-89.0355,8.871,11111222 
WAVCIS,ioos:station:WAVCIS:CSI16:1,2011-03-11T17:00:00Z,29.4012,-89.0355,8.88,11111222 
WAVCIS,ioos:station:WAVCIS:CSI16:1,2011-03-11T18:00:00Z,29.4012,-89.0355,8.886,11111222 
WAVCIS,ioos:station:WAVCIS:CSI16:1,2011-03-11T19:00:00Z,29.4012,-89.0355,8.87,11111222 
WAVCIS,ioos:station:WAVCIS:CSI16:1,2011-03-11T20:00:00Z,29.4012,-89.0355,8.855,11111222 
WAVCIS,ioos:station:WAVCIS:CSI16:1,2011-03-11T21:00:00Z,29.4012,-89.0355,8.8,11111222 
WAVCIS,ioos:station:WAVCIS:CSI16:1,2011-03-11T22:00:00Z,29.4012,-89.0355,8.755,11111222 
WAVCIS,ioos:station:WAVCIS:CSI16:1,2011-03-11T23:00:00Z,29.4012,-89.0355,8.702,11111222 
WAVCIS,ioos:station:WAVCIS:CSI16:1,2011-03-12T00:00:00Z,29.4012,-89.0355,8.644,11111222 
WAVCIS,ioos:station:WAVCIS:CSI16:1,2011-03-12T01:00:00Z,29.4012,-89.0355,8.578,11111222 
WAVCIS,ioos:station:WAVCIS:CSI16:1,2011-03-12T02:00:00Z,29.4012,-89.0355,8.516,11111222 
WAVCIS,ioos:station:WAVCIS:CSI16:1,2011-03-12T03:00:00Z,29.4012,-89.0355,8.465,11111222 
WAVCIS,ioos:station:WAVCIS:CSI16:1,2011-03-12T04:00:00Z,29.4012,-89.0355,8.417,11111222 